Погода в Кудова-Здруй

Польша     50°26′19″N   16°14′14″E
темп.,
°C
ветер,
м/с
пор.,
м/с
влажн.,
%
обл.,
%
осадки,
мм/ч
давл.,
гПа
погр.,
м
2 марта, вт
вт201:00+1ююз11870 0.0 103622
04:00+1юз11890 0.0 103522
07:00+1юз11900 0.0 103522
10:00+6зюз22670 0.0 1035238
13:00+10юз11550 0.0 1034347
16:00+10юз11570 0.0 1033198
19:00+5зюз01740 0.0 103422
22:00+4ююз11750 0.0 103422
3 марта, ср
ср301:00+3юз11740 0.0 103422
04:00+2юз11750 0.0 103222
07:00+1юз12800 0.0 103222
10:00+7юз236216 0.0 1030274
13:00+8юз345649 0.0 1028457
16:00+8юз366417 0.0 1026537
19:00+3юз22868 0.0 102524
22:00+3ююз22880 0.0 102424
4 марта, чт
чт401:00+2ююз229012 0.0 102329
04:00+1ююз229524 0.0 102046
07:00+1ююз229657 0.0 101970
10:00+5юз3581100 0.0 1017354
13:00+9юз587081 0.0 1015657
16:00+8зюз587393 0.0 1012807
19:00+6зюз398897 0.5 1012385
22:00+5сз3697100 4.6 1012444
5 марта, пт
пт501:00+3с2593100 5.0 1012413
04:00+2ссз3597100 1.5 1013334
07:00−2ссв61188100 3.0 1017708
10:00−1ссв797768 0.2 10201024
13:000с576180 0.3 10221440
16:000с475520 0.1 10231556
19:00−3ссз397727 0.2 1025599
22:00−3сз277539 0.0 1027294
6 марта, сб
сб601:00−3зсз227020 0.0 102867
04:00−3з26720 0.0 1029307
07:00−3зсз25733 0.1 1030407
10:00−1ссз344448 0.0 10311224
13:00+2з343224 0.0 10301689
16:00+1з46460 0.0 10281519
19:00−2зюз257413 0.0 1028131
22:00−3зюз26801 0.0 1029201